[[{"header":{"parameterUnit":"m.s-1","parameterCategory":1,"la1":30.2991,"la2":30.254,"lo1":-89.0895,"lo2":-89.0444,"dy":0.0017,"dx":0.0017,"nx":28,"ny":28,"refTime":"2026-02-04T09:00:00:Z","depth":0,"parameterNumber":2,"parameterNumberName":"U-component_of_WINDS"},"data":[0,0,0,0,0,0,0,0,0,0,0,0,0,0,0,0,0,0,0,0,0,0,0,0,0,0,0,0,0,0,0,0,0,0,0,0,0,0,0,0,0,0,0,0,0,0,0,0,0,0,0,0,0,0,0,0,0,0,0.2644,0.2644,0,0.2631,0.263,0.263,0.2609,0.2608,0.2608,0.2608,0.2595,0.2595,0.2595,0,0,0,0,0,0,0,0,0,0,0,0,0,0.2651,0.2651,0.2644,0.2644,0.2643,0.2631,0.263,0.263,0.2609,0.2608,0.2608,0.2607,0.2595,0.2595,0.2595,0,0,0,0,0,0,0,0,0,0,0,0,0,0.2644,0.2651,0.2644,0.2631,0.263,0.2631,0.263,0.263,0.2609,0.2608,0.2608,0.2607,0.2595,0.2595,0.2595,0.2607,0,0,0.2595,0.2595,0,0,0,0,0,0,0,0,0.2644,0.2644,0.2633,0.2632,0.2631,0.2621,0.2628,0.2622,0.2609,0.2617,0.2608,0.2607,0.2604,0.2603,0.2602,0.2606,0.2606,0.2595,0.2595,0.2595,0.2595,0,0,0,0,0,0,0,0.2645,0.2644,0.2639,0.2633,0.2632,0.2626,0.2625,0.2627,0.2614,0.2616,0.2615,0.2613,0.2603,0.2602,0.2602,0.2605,0.2595,0.2595,0.2595,0.2595,0.262,0.262,0,0,0,0,0,0,0.2647,0.2645,0.2639,0.2638,0.2636,0.2627,0.2625,0.2625,0.2614,0.2612,0.2614,0.2612,0.2602,0.2601,0.2601,0.2615,0.2595,0.2595,0.2595,0.2619,0.262,0.2621,0,0,0,0,0,0,0.2647,0.2647,0.2639,0.2641,0.264,0.2627,0.2627,0.2625,0.2623,0.2612,0.261,0.2615,0.2602,0.2601,0.2606,0.2614,0.2595,0.2595,0.2618,0.2619,0.262,0.2642,0,0,0,0,0,0,0.2648,0.2647,0.2651,0.2641,0.264,0.2644,0.2628,0.2625,0.2624,0.2621,0.2613,0.2611,0.2601,0.2606,0.2606,0.2614,0.2595,0.2617,0.2619,0.262,0.2641,0.2644,0.2647,0,0,0,0,0,0.2648,0.2658,0.2652,0.2651,0.2645,0.2645,0.2644,0.2633,0.2624,0.2629,0.2621,0.2611,0.2613,0.2606,0.2606,0.2614,0.2617,0.2618,0.262,0.264,0.2643,0.2647,0,0,0,0,0,0,0.2669,0.2656,0.2649,0.2656,0.2652,0.2641,0.2646,0.2637,0.2635,0.2633,0.262,0.2618,0.2624,0.262,0.2612,0.2626,0.2613,0.2615,0.2629,0.2632,0.2635,0.2636,0.2595,0,0,0,0,0,0.2675,0.2676,0.2665,0.2672,0.267,0.2659,0.2658,0.265,0.2645,0.2643,0.2636,0.2632,0.2631,0.2631,0.2631,0.264,0.2638,0.2646,0.2649,0.2651,0.2653,0.2658,0.2661,0.2625,0.2625,0.2625,0,0,0.2686,0.2679,0.2681,0.2676,0.2672,0.2673,0.2657,0.2659,0.266,0.2643,0.2647,0.2642,0.2636,0.2644,0.2647,0.264,0.2662,0.2653,0.2655,0.2655,0.266,0.2663,0.2666,0.2626,0.2626,0.2626,0,0,0.2708,0.2703,0.2708,0.2704,0.2698,0.269,0.2692,0.2683,0.2679,0.2683,0.267,0.2671,0.2671,0.2667,0.2666,0.2687,0.2677,0.2687,0.2702,0.2708,0.271,0.2713,0.2721,0.2724,0.2688,0.2688,0.2688,0,0.2723,0.2725,0.2712,0.2716,0.2714,0.2699,0.2705,0.2702,0.2695,0.2695,0.2687,0.2687,0.2682,0.2689,0.2694,0.2693,0.2695,0.2688,0.2711,0.2713,0.2715,0.2723,0.2726,0.269,0.269,0.2689,0.2689,0,0.2744,0.2745,0.2751,0.2745,0.2744,0.2749,0.2738,0.2738,0.273,0.2724,0.2728,0.2722,0.272,0.2721,0.2713,0.2726,0.2723,0.2713,0.2701,0.272,0.2727,0.273,0.2691,0.2691,0.2691,0.269,0,0,0.2778,0.2766,0.2768,0.2766,0.2758,0.2759,0.2763,0.2761,0.2762,0.2758,0.2762,0.2762,0.2754,0.2752,0.2744,0.2748,0.2766,0.2739,0.2738,0.2744,0.2781,0.2788,0.2792,0.276,0.276,0.2761,0.2782,0,0.2798,0.2804,0.2794,0.2803,0.2804,0.279,0.2794,0.2789,0.2784,0.2784,0.2778,0.2778,0.2767,0.2766,0.277,0.2763,0.2773,0.2761,0.2763,0.2763,0.2765,0.2795,0.2803,0.2823,0.2784,0.2785,0.2785,0,0.2822,0.282,0.2829,0.2821,0.2821,0.2825,0.2822,0.2823,0.2818,0.2814,0.2812,0.2802,0.2806,0.2794,0.28,0.2792,0.2792,0.2789,0.2789,0.2789,0.2776,0.2796,0.2829,0.2832,0.2789,0.2789,0.2789,0,0.2847,0.2846,0.2851,0.285,0.2841,0.2843,0.284,0.2834,0.2834,0.2832,0.2832,0.283,0.2829,0.2829,0.2819,0.2811,0.2826,0.2813,0.2823,0.2823,0.2827,0.2827,0.286,0.2826,0.2826,0.2826,0.2826,0,0.287,0.2876,0.2862,0.2866,0.2872,0.2861,0.2868,0.2863,0.2858,0.2861,0.2848,0.2851,0.2838,0.2839,0.2832,0.2838,0.2838,0.2834,0.2832,0.2836,0.2836,0.2836,0.2834,0.2827,0.2827,0.2827,0.2827,0,0.2899,0.2889,0.2894,0.2886,0.2884,0.2889,0.2882,0.2885,0.2878,0.2881,0.2882,0.2871,0.2872,0.2863,0.2862,0.2857,0.2867,0.2862,0.2869,0.2867,0.2878,0.2877,0.2913,0.2917,0.288,0.288,0.2881,0,0.2914,0.2919,0.2911,0.2911,0.2908,0.291,0.2909,0.2898,0.2899,0.2894,0.2898,0.2898,0.2897,0.29,0.2892,0.2892,0.2887,0.29,0.2887,0.289,0.2888,0.2888,0.2888,0.2903,0.2903,0.2903,0.2904,0,0.2943,0.2938,0.2938,0.2937,0.2937,0.2935,0.2933,0.2934,0.2922,0.2923,0.2924,0.2924,0.2923,0.2924,0.2922,0.2919,0.2909,0.2908,0.291,0.2913,0.2917,0.2916,0.2876,0.2907,0.2907,0.2906,0.2906,0.2906,0.2965,0.2969,0.2964,0.2965,0.2962,0.296,0.2963,0.2957,0.2957,0.2956,0.295,0.2952,0.2948,0.2944,0.2942,0.2944,0.2938,0.2941,0.2942,0.2943,0.2945,0.2917,0.2944,0.2944,0.2943,0.2943,0.2943,0,0.2994,0.299,0.2991,0.2988,0.2989,0.298,0.2977,0.2978,0.2981,0.2977,0.2977,0.2979,0.298,0.2973,0.2972,0.2975,0.2971,0.2976,0.2975,0.2975,0.295,0.2949,0.2979,0.2979,0.2979,0.2979,0.2979,0.2979,0.3009,0.3014,0.3009,0.3014,0.301,0.3012,0.3012,0.301,0.3008,0.301,0.3011,0.3006,0.3002,0.3001,0.3002,0.3,0.3,0.3006,0.3003,0.298,0.2977,0.2973,0.2972,0.3007,0.3007,0.3027,0.3028,0.3028]},{"header":{"parameterUnit":"m.s-1","parameterCategory":1,"la1":30.2991,"la2":30.254,"lo1":-89.0895,"lo2":-89.0444,"dy":0.0017,"dx":0.0017,"nx":28,"ny":28,"refTime":"2026-02-04T09:00:00:Z","depth":0,"parameterNumber":3,"parameterNumberName":"V-component_of_WINDS"},"data":[0,0,0,0,0,0,0,0,0,0,0,0,0,0,0,0,0,0,0,0,0,0,0,0,0,0,0,0,0,0,0,0,0,0,0,0,0,0,0,0,0,0,0,0,0,0,0,0,0,0,0,0,0,0,0,0,0,0,4.0713,4.0714,0,4.0801,4.0802,4.0803,4.0781,4.078,4.0778,4.0776,4.0866,4.087,4.0874,0,0,0,0,0,0,0,0,0,0,0,0,0,4.0526,4.0529,4.0713,4.0714,4.0715,4.0801,4.0802,4.0804,4.0782,4.078,4.0778,4.0776,4.0865,4.087,4.0875,0,0,0,0,0,0,0,0,0,0,0,0,0,4.061,4.053,4.0713,4.0715,4.0716,4.0801,4.0802,4.0804,4.0782,4.078,4.0777,4.0775,4.0864,4.0869,4.0875,4.0964,0,0,4.0894,4.0896,0,0,0,0,0,0,0,0,4.0605,4.0617,4.0713,4.0715,4.0716,4.0778,4.0769,4.0858,4.0783,4.0757,4.0776,4.0773,4.0839,4.0847,4.0869,4.0968,4.0972,4.0894,4.0898,4.09,4.0902,0,0,0,0,0,0,0,4.0599,4.0613,4.0748,4.0715,4.0717,4.0711,4.072,4.0786,4.0811,4.0759,4.0758,4.0768,4.0839,4.0863,4.0871,4.0973,4.0894,4.0899,4.0903,4.0905,4.1151,4.1153,0,0,0,0,0,0,4.0592,4.0608,4.0745,4.0751,4.0653,4.0717,4.0727,4.0761,4.0811,4.0816,4.0771,4.0767,4.0854,4.0864,4.0874,4.0982,4.09,4.0906,4.0909,4.1148,4.1151,4.1154,0,0,0,0,0,0,4.0588,4.0605,4.0742,4.0679,4.0696,4.0723,4.0761,4.0764,4.0788,4.0819,4.0824,4.0791,4.0853,4.0866,4.0942,4.0985,4.0909,4.0914,4.1144,4.1149,4.1153,4.1199,0,0,0,0,0,0,4.0583,4.0603,4.0637,4.068,4.0699,4.0808,4.0763,4.0767,4.0798,4.0795,4.0839,4.0844,4.0852,4.0933,4.0948,4.0992,4.0919,4.1141,4.1146,4.1151,4.1193,4.1204,4.1213,0,0,0,0,0,4.0576,4.0646,4.0639,4.0656,4.0743,4.0811,4.0822,4.0829,4.0802,4.0836,4.0857,4.0843,4.0978,4.0941,4.0958,4.1004,4.1138,4.1145,4.1151,4.1189,4.1202,4.1213,0,0,0,0,0,0,4.0608,4.0652,4.0645,4.073,4.0767,4.0807,4.0851,4.0843,4.0888,4.0882,4.0889,4.09,4.0978,4.0998,4.0957,4.1093,4.1054,4.1064,4.1077,4.109,4.1099,4.1093,4.0924,0,0,0,0,0,4.0625,4.0677,4.0712,4.0785,4.0803,4.0824,4.0854,4.0857,4.0895,4.091,4.0936,4.0973,4.1024,4.1058,4.1106,4.1196,4.1206,4.1236,4.1246,4.1253,4.1263,4.1313,4.1327,4.1176,4.1176,4.1176,0,0,4.066,4.0691,4.0723,4.0792,4.082,4.0874,4.0837,4.0895,4.0936,4.0919,4.0993,4.1013,4.1056,4.1139,4.1177,4.1159,4.1306,4.1262,4.1268,4.1273,4.1321,4.1335,4.1348,4.118,4.118,4.1179,0,0,4.0753,4.0781,4.0845,4.0874,4.0919,4.0932,4.0947,4.0989,4.1002,4.1076,4.1065,4.1113,4.12,4.1231,4.1258,4.1363,4.1352,4.1378,4.143,4.1479,4.1491,4.1502,4.154,4.1554,4.1387,4.1387,4.1387,0,4.0792,4.0873,4.0879,4.0938,4.0969,4.0957,4.1022,4.105,4.1108,4.1129,4.1107,4.1218,4.1245,4.1336,4.1362,4.1384,4.1402,4.1374,4.1489,4.1499,4.1509,4.1546,4.1561,4.139,4.139,4.139,4.1389,0,4.0919,4.0975,4.1021,4.1078,4.1113,4.1175,4.1191,4.1227,4.1226,4.1242,4.1318,4.1351,4.1406,4.1428,4.1427,4.152,4.1507,4.1487,4.1448,4.1527,4.1562,4.1576,4.1395,4.1393,4.1393,4.1392,0,0,4.1034,4.1094,4.1111,4.1137,4.1184,4.1228,4.129,4.1344,4.1375,4.1415,4.1467,4.1542,4.1524,4.1555,4.1558,4.16,4.1683,4.1575,4.1576,4.1595,4.1788,4.1804,4.182,4.1676,4.1678,4.168,4.1785,0,4.1132,4.1241,4.1249,4.1347,4.14,4.1389,4.1442,4.1478,4.1494,4.1541,4.1558,4.1612,4.1583,4.1602,4.1643,4.1664,4.1722,4.1656,4.1725,4.1728,4.1717,4.1838,4.1855,4.1952,4.1798,4.1801,4.1802,0,4.1261,4.1306,4.141,4.1451,4.1473,4.1522,4.1573,4.1617,4.1657,4.1666,4.1701,4.1698,4.1762,4.172,4.1808,4.1763,4.1792,4.1806,4.181,4.1818,4.1771,4.185,4.1982,4.1998,4.1824,4.1822,4.182,0,4.1337,4.1423,4.1496,4.1519,4.1568,4.1603,4.1625,4.1662,4.1695,4.1739,4.1761,4.1812,4.184,4.188,4.1891,4.1859,4.1979,4.1938,4.1989,4.1989,4.2016,4.2015,4.2156,4.2032,4.2032,4.2032,4.2031,0,4.1446,4.1511,4.1531,4.1577,4.1649,4.1657,4.1728,4.1748,4.1781,4.1831,4.1823,4.187,4.1881,4.193,4.1939,4.2011,4.2024,4.2033,4.2035,4.2035,4.2034,4.2054,4.2049,4.2035,4.2035,4.2034,4.2033,0,4.1543,4.156,4.164,4.168,4.1692,4.1743,4.1778,4.1822,4.1837,4.19,4.1915,4.1939,4.1996,4.2011,4.2079,4.2085,4.2171,4.2165,4.2157,4.2158,4.2209,4.2204,4.237,4.2392,4.2252,4.2254,4.2255,0,4.1613,4.1662,4.1709,4.1741,4.1765,4.1818,4.1851,4.1861,4.1896,4.1945,4.1984,4.204,4.2085,4.2177,4.2201,4.2253,4.225,4.2304,4.2257,4.2256,4.2252,4.225,4.2255,4.2313,4.2315,4.2316,4.2317,0,4.1735,4.1741,4.1789,4.1841,4.1882,4.1923,4.1962,4.1989,4.2004,4.2044,4.2102,4.2138,4.2207,4.2264,4.2317,4.2339,4.2332,4.2331,4.2346,4.2347,4.2341,4.2346,4.2183,4.2328,4.2327,4.2326,4.2325,4.2325,4.1822,4.1866,4.1905,4.196,4.199,4.2028,4.2071,4.2092,4.2141,4.2199,4.2201,4.2265,4.2304,4.2374,4.24,4.245,4.2434,4.2455,4.2461,4.2466,4.2472,4.2332,4.246,4.2459,4.2459,4.2459,4.2459,0,4.1945,4.197,4.202,4.2076,4.2119,4.2107,4.215,4.2187,4.2243,4.228,4.2326,4.2393,4.2448,4.2476,4.253,4.2565,4.2563,4.2579,4.2577,4.2583,4.2482,4.2465,4.258,4.258,4.258,4.258,4.258,4.258,4.2014,4.2088,4.2099,4.2188,4.2212,4.2275,4.2301,4.2335,4.2365,4.2441,4.2487,4.2505,4.2538,4.2595,4.2645,4.2652,4.2673,4.2691,4.2696,4.2602,4.259,4.2578,4.2562,4.2696,4.2696,4.2793,4.2794,4.2795]}]]